Regional Weather Roundup
Issued by NWS

Home | Current Version | Previous Version | Graphics & Text | Print | Product List | Glossary On
Versions: 1 2 3 4 5 6 7 8 9 10 11 12 13 14 15 16 17 18 19 20 21 22 23 24 25 26 27 28 29 30 31 32 33 34 35 36 37 38 39 40 41 42 43 44 45 46 47 48 49 50
000
ASUS43 KOAX 040110
RWRNE

WEATHER ROUNDUP FOR NEBRASKA
NATIONAL WEATHER SERVICE OMAHA NE
700 PM CST TUE MAR 03 2015

NOTES: SATELLITE DATA IS BEING USED TO AUGMENT CLOUD COVER ABOVE
       12000 FEET.
       "FAIR" INDICATES FEW OR NO CLOUDS BELOW 12,000 FEET WITH NO
       SIGNIFICANT WEATHER AND/OR OBSTRUCTIONS TO VISIBILITY.

  * THESE STATIONS DO NOT REPORT WEATHER SUCH AS RAIN...SNOW OR FOG.

NEZ001>004-019>022-054>056-040200-
NEBRASKA PANHANDLE

CITY           SKY/WX    TMP DP  RH WIND       PRES   REMARKS
SCOTTSBLUFF    CLOUDY    18   9  68 NW10      29.96R WCI   6
ALLIANCE       LGT SNOW  15  11  83 N12       29.95R FOG     WCI   2
CHADRON        LGT SNOW  16  12  84 W13       30.00R VSB 1   WCI   2
KIMBALL        FLURRIES  16  10  78 N10       29.87R WCI   3
SIDNEY         CLOUDY    20  10  65 N10       29.91R WCI   9
$$

NEZ057>060-069>072-079>082-040200-
SOUTHWEST NEBRASKA

CITY           SKY/WX    TMP DP  RH WIND       PRES   REMARKS
NORTH PLATTE   MOCLDY    22   2  42 N13       29.99R WCI  10
IMPERIAL         N/A     24   7  48 NE12      29.95R WCI  13
LEXINGTON      CLEAR     24   4  42 N10       29.99R WCI  13
MCCOOK         CLEAR     26   9  48 NE10      29.96R WCI  16
OGALLALA       MOCLDY    22   8  53 N12       29.97R WCI  11
$$

NEZ005>010-023>029-035>040-094-040200-
NORTH CENTRAL NEBRASKA

CITY           SKY/WX    TMP DP  RH WIND       PRES   REMARKS
VALENTINE      PTCLDY    16   2  54 N10       30.02R WCI   4
AINSWORTH      CLEAR     16   5  61 NW8       30.00R WCI   5
BROKEN BOW     CLEAR     20   3  48 N9        30.00R WCI   9
O`NEILL        CLEAR     17   4  57 NW12      30.03R WCI   4
ORD            CLEAR     19   2  47 N14       30.03R WCI   6
THEDFORD       PTCLDY    18   5  56 N10       30.00R WCI   6
$$

NEZ041-046>049-061>064-073>077-083>087-040200-
SOUTH CENTRAL NEBRASKA

CITY           SKY/WX    TMP DP  RH WIND       PRES   REMARKS
GRAND ISLAND   CLEAR     23   5  46 N16       30.02R WCI  10
AURORA         PTCLDY    25   6  44 N13G21    30.00R WCI  13
HASTINGS       PTCLDY    25   5  42 N12       29.98R WCI  14
HEBRON         CLOUDY    29   1  30 N8        30.01R WCI  21
HOLDREGE       CLEAR     24   0  35 N13       29.98R WCI  12
KEARNEY *      CLEAR     23   0  36 N17       29.99R WCI   9
YORK           MOCLDY    25   5  42 N20G25    30.00R WCI  11
$$

NEZ011>018-030>034-042>045-040200-
NORTHEAST NEBRASKA

CITY           SKY/WX    TMP DP  RH WIND       PRES   REMARKS
NORFOLK        CLEAR     19   4  51 N16       30.03R WCI   4
ALBION         PTCLDY    20   3  47 N9        30.03R WCI   9
BLAIR          MOCLDY    24   8  50 N14G22    30.01R WCI  12
COLUMBUS *     PTCLDY    21   1  42 N13       30.04R WCI   9
FREMONT        MOCLDY    24   7  48 N14G24    30.03R WCI  11
TEKAMAH        MOCLDY    22   7  52 NW20      30.06R WCI   7
WAYNE          MOCLDY    18   4  55 N12       30.05R WCI   5
$$

NEZ050>053-065>068-078-088>093-040200-
SOUTHEAST NEBRASKA

CITY           SKY/WX    TMP DP  RH WIND       PRES   REMARKS
LINCOLN        CLOUDY    26   5  40 N21       30.03R WCI  12
OMAHA EPPLEY   MOCLDY    24   9  52 N17G26    30.02R WCI  11
BEATRICE       CLOUDY    29  10  45 N13       29.99R WCI  19
FALLS CITY     MOCLDY    32  20  61 N7G17     29.98R WCI  26
NEBRASKA CITY  MOCLDY    29  11  47 N10G20    29.99R WCI  20
PLATTSMOUTH    MOCLDY    27   8  43 NW15G22   30.00R WCI  15
$$

NEZ044-045-051>053-067-040200-
OMAHA AREA

CITY           SKY/WX    TMP DP  RH WIND       PRES   REMARKS
OMAHA EPPLEY   MOCLDY    24   9  52 N17G26    30.02R WCI  11
BLAIR          MOCLDY    24   8  50 N14G22    30.01R WCI  12
FREMONT        MOCLDY    24   7  48 N14G24    30.03R WCI  11
MILLARD        CLOUDY    27   7  43 N14G21    30.02R WCI  15
OFFUTT AFB     CLOUDY    27   8  44 N15       30.00R WCI  15
PLATTSMOUTH    MOCLDY    27   8  43 NW15G22   30.00R WCI  15
WAHOO          FAIR      24   7  48 N15       30.03R WCI  11
$$


USA.gov is the U.S. government's official web portal to all federal, state and local government web resources and services.